Location: Habighorst
(52.7089°N, 10.2278°E)
Time: 00:13:37
(UTC+00:00)

Cosmos 2344 - Pass Details

Date: 13 January 2026
Orbit: 1195 x 3047 km, 63.3° (Epoch: 17 February)

Event Time Altitude Azimuth Distance (km) Brightness Sun altitude
Exits shadow 06:30:19 - 309° (NW) 3,321 5.1 -8.0°
Reaches altitude 10° 06:30:44 10° 310° (NW) 3,179 5.1 -7.9°
Maximum altitude 06:37:58 53° 27° (NNE) 1,642 4.2 -6.9°
Drops below altitude 10° 06:47:02 10° 103° (ESE) 3,955 7.7 -5.7°
Sets 06:50:45 0° 109° (ESE) 5,198 9.0 -5.2°
